QPF
0.07 0.09 0.08 0.08 0.10 0.10 0.10 0.12 0.14 0.15 0.14 0.14 0.12 0.15 0.13 0.12 0.11 0.08 0.07 0.09 0.07 0.07 0.05 0.05 0.06 0.06 0.06 0.05 0.04 0.04 0.05 0.05 0.05 0.06 0.06 0.06 0.06 0.07
0.08 0.08 0.09 0.07 0.07 0.06 0.07 0.11 0.14 0.17 0.15 0.17 0.15 0.14 0.11 0.09 0.09 0.07 0.06 0.07 0.06 0.06 0.05 0.05 0.06 0.06 0.06 0.06 0.05 0.05 0.05 0.05 0.06 0.06 0.06 0.06 0.05 0.05
0.08 0.07 0.07 0.06 0.07 0.06 0.07 0.10 0.15 0.18 0.18 0.22 0.19 0.15 0.13 0.10 0.11 0.09 0.08 0.06 0.06 0.08 0.06 0.05 0.05 0.05 0.05 0.04 0.04 0.03 0.04 0.04 0.04 0.04 0.04 0.04 0.03 0.03
0.05 0.06 0.05 0.05 0.05 0.05 0.06 0.07 0.09 0.13 0.16 0.18 0.16 0.12 0.10 0.10 0.10 0.09 0.08 0.05 0.06 0.09 0.08 0.05 0.04 0.04 0.03 0.02 0.02 0.02 0.02 0.02 0.02 0.02 0.02 0.02 0.02 0.02
0.06 0.06 0.04 0.04 0.04 0.05 0.06 0.05 0.05 0.08 0.09 0.09 0.11 0.11 0.10 0.08 0.08 0.07 0.07 0.06 0.06 0.06 0.07 0.05 0.04 0.02 0.01 0.01 0.01 0.01 0.01 0.01 0.01 0.02 0.02 0.01 0.01 0.01
0.05 0.05 0.04 0.03 0.02 0.03 0.05 0.05 0.06 0.05 0.05 0.06 0.07 0.08 0.08 0.08 0.08 0.07 0.06 0.05 0.05 0.06 0.07 0.06 0.04 0.02 0.01 0.01 0.01 0.00 0.00 0.00 0.00 0.01 0.01 0.01 0.01 0.00
0.04 0.03 0.03 0.02 0.01 0.01 0.02 0.06 0.05 0.04 0.04 0.05 0.06 0.06 0.06 0.07 0.07 0.07 0.05 0.04 0.06 0.06 0.06 0.06 0.05 0.03 0.02 0.01 0.01 0.01 0.00 0.00 0.00 0.01 0.01 0.01 0.01 0.00
0.03 0.03 0.02 0.01 0.01 0.01 0.01 0.02 0.04 0.04 0.04 0.04 0.04 0.05 0.05 0.07 0.08 0.07 0.06 0.05 0.05 0.07 0.09 0.09 0.05 0.03 0.02 0.01 0.00 0.00 0.00 0.00 0.00 0.01 0.01 0.01 0.01 0.00
0.03 0.03 0.02 0.01 0.01 0.01 0.01 0.00 0.01 0.02 0.03 0.04 0.04 0.03 0.04 0.05 0.05 0.05 0.06 0.07 0.09 0.10 0.08 0.05 0.04 0.03 0.01 0.01 0.01 0.00 0.00 0.00 0.00 0.00 0.00 0.00 0.00 0.01
0.02 0.02 0.02 0.02 0.01 0.01 0.01 0.01 0.01 0.01 0.01 0.02 0.03 0.03 0.02 0.03 0.03 0.04 0.05 0.05 0.06 0.05 0.03 0.03 0.03 0.02 0.02 0.01 0.01 0.01 0.01 0.00 0.00 0.00 0.00 0.00 0.01 0.01
0.03 0.02 0.01 0.01 0.01 0.01 0.01 0.01 0.01 0.01 0.01 0.01 0.01 0.01 0.01 0.01 0.01 0.03 0.04 0.04 0.05 0.05 0.03 0.03 0.03 0.03 0.03 0.02 0.02 0.02 0.01 0.01 0.00 0.00 0.00 0.00 0.01 0.01
0.02 0.01 0.01 0.01 0.00 0.00 0.01 0.01 0.01 0.01 0.01 0.01 0.01 0.01 0.01 0.01 0.01 0.02 0.04 0.04 0.04 0.04 0.03 0.02 0.03 0.03 0.03 0.03 0.02 0.02 0.01 0.01 0.00 0.01 0.01 0.01 0.01 0.01
0.02 0.02 0.01 0.01 0.00 0.00 0.00 0.01 0.01 0.01 0.01 0.01 0.01 0.02 0.02 0.02 0.02 0.02 0.02 0.03 0.03 0.03 0.02 0.02 0.03 0.04 0.04 0.04 0.03 0.02 0.02 0.02 0.01 0.02 0.02 0.01 0.00 0.00
0.01 0.01 0.01 0.00 0.00 0.00 0.00 0.01 0.01 0.01 0.01 0.01 0.02 0.02 0.03 0.03 0.03 0.02 0.02 0.02 0.02 0.03 0.02 0.01 0.02 0.02 0.03 0.04 0.04 0.03 0.03 0.02 0.01 0.02 0.03 0.01 0.00 0.00
0.00 0.00 0.00 0.00 0.00 0.01 0.01 0.01 0.01 0.01 0.01 0.02 0.02 0.03 0.04 0.03 0.03 0.03 0.02 0.02 0.02 0.01 0.01 0.01 0.01 0.01 0.02 0.02 0.02 0.02 0.02 0.02 0.01 0.01 0.02 0.03 0.02 0.01
0.00 0.00 0.00 0.01 0.01 0.01 0.01 0.01 0.01 0.01 0.02 0.02 0.02 0.02 0.03 0.03 0.03 0.03 0.02 0.01 0.01 0.01 0.01 0.01 0.01 0.01 0.01 0.01 0.01 0.01 0.01 0.02 0.01 0.01 0.02 0.02 0.03 0.03
0.00 0.00 0.00 0.00 0.01 0.01 0.01 0.01 0.01 0.00 0.01 0.01 0.01 0.01 0.02 0.03 0.04 0.03 0.02 0.01 0.01 0.01 0.01 0.01 0.01 0.01 0.01 0.01 0.01 0.01 0.01 0.01 0.01 0.01 0.02 0.02 0.02 0.02
0.00 0.00 0.01 0.01 0.01 0.01 0.01 0.00 0.00 0.00 0.00 0.00 0.00 0.01 0.01 0.01 0.01 0.01 0.01 0.01 0.01 0.01 0.01 0.01 0.01 0.01 0.02 0.01 0.01 0.01 0.01 0.01 0.02 0.02 0.03 0.03 0.02 0.02
0.01 0.01 0.01 0.01 0.01 0.01 0.01 0.00 0.00 0.00 0.00 0.01 0.01 0.01 0.01 0.01 0.01 0.01 0.02 0.01 0.02 0.02 0.01 0.01 0.01 0.01 0.02 0.02 0.01 0.00 0.00 0.01 0.01 0.02 0.02 0.01 0.01 0.01
0.01 0.01 0.01 0.01 0.01 0.01 0.00 0.00 0.00 0.00 0.00 0.00 0.00 0.00 0.01 0.01 0.01 0.01 0.01 0.01 0.02 0.02 0.02 0.02 0.01 0.01 0.01 0.02 0.01 0.01 0.00 0.00 0.01 0.01 0.01 0.01 0.01 0.01
0.01 0.01 0.01 0.01 0.00 0.00 0.00 0.00 0.00 0.00 0.00 0.00 0.00 0.00 0.00 0.00 0.00 0.00 0.01 0.01 0.01 0.01 0.01 0.01 0.01 0.01 0.01 0.01 0.02 0.01 0.01 0.01 0.01 0.01 0.01 0.01 0.01 0.01
0.00 0.00 0.00 0.00 0.00 0.00 0.00 0.00 0.00 0.00 0.00 0.00 0.00 0.00 0.00 0.00 0.00 0.00 0.00 0.01 0.01 0.01 0.02 0.02 0.01 0.01 0.01 0.02 0.02 0.02 0.02 0.01 0.01 0.01 0.01 0.01 0.01 0.01
0.00 0.00 0.00 0.00 0.00 0.00 0.00 0.00 0.00 0.00 0.00 0.00 0.00 0.00 0.00 0.00 0.00 0.00 0.01 0.01 0.01 0.01 0.02 0.02 0.02 0.01 0.01 0.02 0.02 0.02 0.02 0.01 0.01 0.01 0.01 0.01 0.01 0.01
MSLP
1011.61 1011.58 1011.66 1011.86 1012.17 1012.61 1013.12 1013.69 1014.28 1014.87 1015.42 1015.94 1016.41 1016.83 1017.21 1017.56 1017.88 1018.18 1018.45 1018.71 1018.94 1019.16 1019.36 1019.54 1019.70 1019.87 1020.03 1020.20 1020.38 1020.58 1020.79 1021.02 1021.27 1021.52 1021.77 1022.02 1022.25 1022.47
1011.26 1011.18 1011.21 1011.35 1011.63 1012.03 1012.54 1013.12 1013.76 1014.41 1015.06 1015.69 1016.28 1016.82 1017.31 1017.75 1018.16 1018.52 1018.85 1019.15 1019.42 1019.66 1019.88 1020.09 1020.28 1020.46 1020.63 1020.81 1020.98 1021.17 1021.36 1021.55 1021.75 1021.96 1022.16 1022.35 1022.54 1022.72
1011.18 1011.08 1011.06 1011.16 1011.39 1011.76 1012.24 1012.82 1013.47 1014.16 1014.87 1015.57 1016.24 1016.86 1017.44 1017.95 1018.41 1018.82 1019.18 1019.51 1019.79 1020.05 1020.29 1020.51 1020.72 1020.92 1021.12 1021.31 1021.49 1021.67 1021.84 1022.01 1022.17 1022.33 1022.47 1022.62 1022.75 1022.88
1011.39 1011.29 1011.27 1011.34 1011.53 1011.85 1012.29 1012.83 1013.46 1014.15 1014.88 1015.60 1016.31 1016.98 1017.59 1018.14 1018.62 1019.04 1019.41 1019.73 1020.01 1020.27 1020.51 1020.74 1020.97 1021.19 1021.41 1021.62 1021.82 1022.00 1022.17 1022.31 1022.45 1022.56 1022.67 1022.76 1022.85 1022.95
1011.88 1011.80 1011.78 1011.83 1011.99 1012.26 1012.65 1013.14 1013.72 1014.37 1015.07 1015.77 1016.47 1017.13 1017.73 1018.27 1018.74 1019.14 1019.48 1019.78 1020.04 1020.28 1020.51 1020.74 1020.98 1021.21 1021.45 1021.68 1021.89 1022.09 1022.26 1022.40 1022.51 1022.61 1022.69 1022.75 1022.82 1022.89
1012.54 1012.50 1012.49 1012.54 1012.67 1012.90 1013.23 1013.65 1014.16 1014.74 1015.37 1016.02 1016.67 1017.28 1017.84 1018.33 1018.75 1019.11 1019.40 1019.65 1019.87 1020.08 1020.29 1020.51 1020.74 1020.98 1021.23 1021.47 1021.70 1021.91 1022.08 1022.23 1022.35 1022.44 1022.51 1022.57 1022.63 1022.69
1013.26 1013.25 1013.26 1013.32 1013.43 1013.61 1013.88 1014.23 1014.66 1015.16 1015.70 1016.27 1016.83 1017.37 1017.86 1018.29 1018.65 1018.94 1019.18 1019.38 1019.55 1019.72 1019.90 1020.09 1020.31 1020.54 1020.79 1021.03 1021.27 1021.48 1021.67 1021.82 1021.95 1022.06 1022.14 1022.22 1022.29 1022.37
1013.89 1013.92 1013.96 1014.02 1014.12 1014.28 1014.49 1014.77 1015.12 1015.53 1015.97 1016.45 1016.92 1017.37 1017.79 1018.14 1018.44 1018.67 1018.85 1019.00 1019.13 1019.26 1019.40 1019.56 1019.75 1019.97 1020.20 1020.43 1020.66 1020.87 1021.07 1021.24 1021.38 1021.51 1021.62 1021.73 1021.83 1021.94
1014.36 1014.43 1014.50 1014.58 1014.68 1014.82 1014.99 1015.21 1015.48 1015.80 1016.16 1016.54 1016.92 1017.29 1017.63 1017.92 1018.15 1018.34 1018.48 1018.59 1018.68 1018.77 1018.88 1019.01 1019.17 1019.36 1019.56 1019.77 1019.98 1020.18 1020.38 1020.55 1020.72 1020.87 1021.02 1021.16 1021.29 1021.43
1014.64 1014.76 1014.87 1014.98 1015.09 1015.22 1015.36 1015.54 1015.74 1015.99 1016.26 1016.56 1016.86 1017.15 1017.42 1017.66 1017.85 1018.00 1018.11 1018.20 1018.27 1018.34 1018.43 1018.53 1018.66 1018.81 1018.98 1019.15 1019.34 1019.52 1019.70 1019.87 1020.05 1020.22 1020.39 1020.56 1020.72 1020.88
1014.79 1014.96 1015.11 1015.26 1015.40 1015.53 1015.66 1015.79 1015.95 1016.13 1016.33 1016.55 1016.78 1017.01 1017.22 1017.42 1017.58 1017.71 1017.81 1017.89 1017.96 1018.02 1018.09 1018.18 1018.28 1018.40 1018.53 1018.67 1018.82 1018.97 1019.12 1019.28 1019.45 1019.62 1019.80 1019.98 1020.15 1020.31
1014.89 1015.11 1015.32 1015.50 1015.67 1015.81 1015.93 1016.03 1016.14 1016.26 1016.40 1016.55 1016.72 1016.89 1017.07 1017.23 1017.37 1017.50 1017.60 1017.68 1017.76 1017.83 1017.90 1017.97 1018.06 1018.15 1018.25 1018.35 1018.46 1018.57 1018.69 1018.82 1018.96 1019.11 1019.27 1019.44 1019.60 1019.74
1015.00 1015.27 1015.53 1015.76 1015.95 1016.10 1016.21 1016.29 1016.36 1016.43 1016.51 1016.60 1016.71 1016.84 1016.97 1017.11 1017.24 1017.36 1017.47 1017.57 1017.66 1017.75 1017.83 1017.90 1017.98 1018.05 1018.12 1018.19 1018.25 1018.32 1018.39 1018.48 1018.57 1018.68 1018.80 1018.93 1019.05 1019.16
1015.16 1015.49 1015.79 1016.05 1016.26 1016.41 1016.51 1016.57 1016.60 1016.62 1016.65 1016.69 1016.75 1016.84 1016.94 1017.05 1017.18 1017.30 1017.42 1017.54 1017.65 1017.75 1017.84 1017.92 1017.99 1018.05 1018.09 1018.13 1018.15 1018.17 1018.19 1018.21 1018.25 1018.29 1018.35 1018.41 1018.47 1018.52
1015.36 1015.72 1016.06 1016.34 1016.56 1016.71 1016.79 1016.83 1016.83 1016.82 1016.80 1016.80 1016.83 1016.88 1016.96 1017.06 1017.17 1017.30 1017.43 1017.55 1017.67 1017.79 1017.88 1017.97 1018.03 1018.07 1018.10 1018.10 1018.08 1018.05 1018.01 1017.96 1017.93 1017.89 1017.87 1017.85 1017.83 1017.81
1015.56 1015.94 1016.28 1016.56 1016.78 1016.92 1017.00 1017.02 1017.00 1016.97 1016.93 1016.91 1016.92 1016.95 1017.01 1017.10 1017.21 1017.34 1017.47 1017.59 1017.72 1017.83 1017.92 1018.00 1018.05 1018.07 1018.07 1018.03 1017.97 1017.88 1017.78 1017.67 1017.55 1017.44 1017.32 1017.22 1017.11 1017.02
1015.69 1016.06 1016.40 1016.67 1016.88 1017.01 1017.08 1017.10 1017.08 1017.05 1017.02 1017.00 1017.01 1017.04 1017.11 1017.19 1017.30 1017.41 1017.53 1017.65 1017.76 1017.85 1017.93 1017.98 1018.00 1017.99 1017.95 1017.87 1017.76 1017.62 1017.46 1017.28 1017.09 1016.89 1016.70 1016.51 1016.32 1016.15
1015.71 1016.07 1016.38 1016.64 1016.84 1016.97 1017.04 1017.08 1017.08 1017.07 1017.07 1017.08 1017.11 1017.16 1017.24 1017.32 1017.42 1017.53 1017.62 1017.71 1017.79 1017.84 1017.88 1017.88 1017.86 1017.81 1017.72 1017.59 1017.44 1017.25 1017.03 1016.79 1016.54 1016.28 1016.02 1015.76 1015.51 1015.27
1015.65 1015.98 1016.28 1016.52 1016.71 1016.84 1016.94 1017.00 1017.04 1017.07 1017.12 1017.17 1017.24 1017.32 1017.41 1017.50 1017.59 1017.67 1017.73 1017.78 1017.80 1017.80 1017.77 1017.72 1017.64 1017.53 1017.38 1017.21 1017.01 1016.78 1016.52 1016.25 1015.96 1015.66 1015.35 1015.05 1014.75 1014.46
1015.58 1015.88 1016.15 1016.38 1016.57 1016.72 1016.83 1016.93 1017.02 1017.11 1017.20 1017.30 1017.41 1017.51 1017.61 1017.70 1017.77 1017.81 1017.83 1017.81 1017.77 1017.70 1017.60 1017.48 1017.33 1017.16 1016.97 1016.75 1016.51 1016.26 1015.98 1015.69 1015.39 1015.07 1014.75 1014.43 1014.11 1013.80
1015.56 1015.84 1016.10 1016.32 1016.51 1016.68 1016.82 1016.96 1017.09 1017.22 1017.35 1017.48 1017.61 1017.73 1017.82 1017.89 1017.92 1017.91 1017.87 1017.79 1017.67 1017.52 1017.35 1017.16 1016.95 1016.73 1016.50 1016.25 1016.00 1015.73 1015.46 1015.18 1014.90 1014.60 1014.30 1013.99 1013.67 1013.36
1015.66 1015.94 1016.19 1016.41 1016.60 1016.78 1016.94 1017.10 1017.25 1017.40 1017.55 1017.69 1017.81 1017.91 1017.98 1018.00 1017.98 1017.92 1017.81 1017.65 1017.47 1017.25 1017.02 1016.77 1016.52 1016.26 1016.01 1015.76 1015.51 1015.26 1015.02 1014.78 1014.53 1014.28 1014.02 1013.75 1013.47 1013.16
1015.91 1016.18 1016.43 1016.65 1016.85 1017.02 1017.19 1017.34 1017.49 1017.63 1017.76 1017.87 1017.95 1018.00 1018.01 1017.98 1017.90 1017.77 1017.59 1017.38 1017.13 1016.87 1016.60 1016.32 1016.05 1015.78 1015.53 1015.30 1015.08 1014.87 1014.68 1014.50 1014.32 1014.13 1013.93 1013.72 1013.47 1013.20
Thickness
5750 5748 5746 5744 5742 5740 5736 5731 5722 5713 5708 5707 5707 5707 5705 5702 5699 5697 5694 5692 5690 5688 5686 5684 5683 5681 5679 5678 5676 5675 5674 5672 5671 5670 5669 5668 5667 5667
5747 5744 5742 5740 5739 5737 5734 5730 5726 5718 5707 5704 5702 5701 5699 5696 5692 5689 5686 5684 5681 5679 5678 5676 5674 5672 5670 5668 5666 5665 5664 5662 5660 5660 5659 5658 5657 5656
5743 5740 5738 5736 5734 5732 5730 5726 5722 5717 5706 5699 5697 5695 5692 5689 5684 5682 5679 5676 5673 5671 5669 5667 5664 5662 5660 5658 5657 5655 5653 5651 5650 5648 5648 5646 5645 5645
5737 5735 5733 5732 5729 5727 5724 5720 5716 5712 5705 5695 5690 5687 5684 5682 5679 5676 5673 5670 5667 5663 5661 5658 5655 5652 5650 5648 5647 5644 5642 5641 5639 5637 5636 5635 5633 5632
5732 5730 5728 5726 5722 5720 5717 5714 5710 5706 5701 5693 5686 5682 5678 5676 5672 5670 5667 5663 5660 5656 5652 5650 5647 5644 5641 5639 5637 5635 5633 5631 5628 5626 5624 5622 5621 5619
5727 5724 5722 5719 5716 5714 5711 5707 5704 5699 5694 5688 5682 5677 5672 5669 5666 5662 5658 5656 5654 5650 5646 5643 5639 5636 5633 5631 5628 5626 5623 5620 5618 5616 5613 5611 5609 5607
5720 5717 5714 5712 5709 5707 5704 5700 5697 5693 5688 5682 5676 5671 5666 5663 5659 5657 5653 5650 5647 5644 5640 5636 5633 5629 5626 5623 5620 5616 5614 5611 5608 5606 5603 5600 5598 5596
5714 5711 5708 5706 5703 5700 5696 5693 5691 5687 5682 5676 5670 5665 5661 5658 5655 5652 5647 5643 5639 5638 5635 5631 5628 5623 5619 5615 5612 5609 5605 5602 5599 5596 5593 5590 5588 5585
5709 5706 5704 5700 5697 5693 5690 5687 5683 5680 5677 5672 5666 5660 5656 5654 5650 5646 5642 5639 5635 5633 5629 5624 5622 5617 5613 5609 5605 5601 5597 5594 5591 5587 5584 5581 5578 5576
5704 5701 5696 5692 5690 5686 5684 5679 5675 5671 5669 5666 5661 5657 5652 5649 5645 5642 5638 5634 5631 5627 5623 5617 5615 5611 5607 5602 5598 5594 5590 5586 5583 5580 5576 5573 5570 5568
5698 5693 5690 5685 5681 5679 5677 5672 5667 5663 5660 5657 5654 5650 5646 5643 5639 5635 5630 5627 5621 5618 5615 5610 5607 5602 5599 5594 5590 5586 5582 5579 5575 5572 5568 5565 5562 5559
5691 5687 5682 5678 5674 5672 5669 5665 5660 5656 5653 5651 5646 5643 5639 5635 5632 5628 5623 5618 5614 5609 5607 5603 5599 5595 5590 5587 5583 5578 5574 5570 5567 5563 5560 5557 5553 5550
5687 5681 5675 5671 5668 5665 5662 5658 5654 5650 5647 5644 5640 5636 5632 5627 5623 5620 5616 5612 5607 5602 5600 5596 5591 5588 5583 5579 5575 5571 5567 5564 5560 5556 5552 5549 5546 5542
5681 5675 5669 5665 5662 5658 5655 5651 5648 5645 5642 5638 5634 5629 5624 5620 5616 5612 5609 5605 5601 5597 5593 5589 5584 5580 5576 5571 5568 5566 5562 5558 5555 5550 5546 5543 5539 5536
5673 5667 5662 5658 5655 5652 5649 5645 5642 5639 5635 5631 5626 5622 5618 5614 5610 5605 5601 5597 5594 5590 5586 5582 5578 5573 5569 5564 5561 5558 5554 5551 5548 5544 5541 5537 5533 5530
5665 5660 5656 5653 5648 5645 5642 5639 5635 5632 5628 5623 5619 5615 5611 5607 5602 5599 5594 5590 5585 5581 5578 5574 5571 5566 5561 5558 5554 5550 5547 5543 5540 5536 5533 5530 5527 5523
5660 5655 5651 5647 5643 5638 5634 5631 5628 5625 5621 5617 5612 5607 5603 5599 5595 5591 5587 5583 5578 5573 5569 5567 5563 5559 5555 5551 5546 5543 5540 5536 5533 5529 5525 5522 5520 5517
5655 5650 5646 5642 5638 5633 5628 5624 5621 5618 5614 5610 5606 5601 5596 5592 5588 5584 5580 5575 5570 5566 5562 5559 5555 5551 5547 5544 5540 5536 5533 5529 5525 5522 5518 5514 5511 5509
5649 5644 5640 5637 5633 5628 5624 5619 5615 5611 5607 5603 5599 5594 5590 5585 5581 5576 5572 5567 5563 5559 5555 5552 5548 5542 5537 5534 5533 5529 5525 5522 5518 5514 5511 5507 5504 5502
5644 5640 5636 5632 5627 5622 5618 5613 5608 5604 5600 5596 5592 5587 5583 5578 5574 5569 5565 5561 5556 5552 5549 5546 5541 5536 5531 5527 5524 5522 5519 5515 5511 5507 5504 5502 5498 5495
5638 5635 5631 5626 5621 5617 5612 5607 5602 5598 5593 5589 5585 5580 5576 5571 5567 5563 5559 5554 5549 5545 5541 5538 5535 5531 5528 5523 5518 5516 5514 5510 5507 5502 5499 5495 5492 5489
5633 5629 5625 5621 5616 5611 5606 5601 5596 5591 5587 5582 5578 5573 5569 5565 5560 5556 5552 5548 5543 5539 5536 5533 5529 5525 5521 5516 5513 5510 5508 5506 5503 5499 5494 5491 5486 5482
5627 5624 5620 5615 5611 5606 5601 5595 5590 5585 5580 5576 5572 5567 5563 5558 5554 5550 5546 5542 5538 5533 5530 5526 5523 5518 5515 5511 5507 5504 5502 5500 5497 5494 5490 5487 5483 5479